Del Rio, TX

9:44 PM CDT on March 27, 2017 (GMT -0500)
Del Rio International

Weather History for KDRT - August, 2014

Change the Weather History Date:

Friday, August 29, 2014

  Actual Average Record
Temperature  
Mean Temperature 89 °F 85 °F  
Max Temperature 99 °F 96 °F 107 °F (2011)
Min Temperature 78 °F 74 °F 64 °F (1940)
Degree Days  
Heating Degree Days 0 0  
Month to date heating degree days 0 0  
Since 1 June heating degree days 0 0  
Since 1 July heating degree days 0 0  
Cooling Degree Days 24 20  
Month to date cooling degree days 668 622  
Year to date cooling degree days 2841 2600  
Since 1 June cooling degree days 1991 1841  
Growing Degree Days 39 (Base 50)    
Moisture  
Dew Point 68 °F    
Average Humidity 56    
Maximum Humidity 79    
Minimum Humidity 33    
Precipitation  
Precipitation 0.00 in 0.09 in 6.09 in (2008)
Month to date precipitation 0.78 1.99  
Year to date precipitation 7.17 13.32  
Sea Level Pressure  
Sea Level Pressure 29.80 in    
Wind  
Wind Speed 10 mph (ESE)    
Max Wind Speed 17 mph    
Max Gust Speed 22 mph    
Visibility 10 miles    
Events      
T = Trace of Precipitation, MM = Missing Value Source: NWS Daily Summary

Daily Weather History Graph

Daily Weather History Graph

Search for Another Location

Airport or City:

Trip Planner

Search our weather history database for the weather conditions in past years. The results will help you decide how hot, cold, wet, or windy it might be!

Date:

Astronomy

Aug. 29, 2014 Rise Set
Actual Time 7:19 AM CDT 8:09 PM CDT
Civil Twilight 6:55 AM CDT 8:33 PM CDT
Nautical Twilight 6:26 AM CDT 9:01 PM CDT
Astronomical Twilight 5:57 AM CDT 9:31 PM CDT
Moon 10:50 AM CDT (8/29) 10:30 PM CDT (8/29)
Length of Visible Light 13h 37m
Length of Day
12h 49m
Waxing Crescent, 15% of the Moon is Illuminated
Aug 29
Waxing Crescent
Sep 2
First Quarter
Sep 8
Full
Sep 15
Last Quarter
Sep 24
New

Hourly Weather History & Observations

Time (CDT) Temp. Heat Index Dew Point Humidity Pressure Visibility Wind Dir Wind Speed Gust Speed Precip Events Conditions
12:53 AM 87.1 °F 90.6 °F 68.0 °F 53% 29.80 in 10.0 mi SE 15.0 mph 23.0 mph N/A   Clear
1:53 AM 84.9 °F 88.2 °F 68.0 °F 57% 29.79 in 10.0 mi ESE 15.0 mph - N/A   Clear
2:53 AM 82.9 °F 87.0 °F 70.0 °F 65% 29.80 in 10.0 mi SE 6.9 mph - N/A   Clear
3:53 AM 82.0 °F 85.5 °F 69.1 °F 65% 29.80 in 10.0 mi ESE 11.5 mph - N/A   Clear
4:53 AM 80.1 °F 82.9 °F 69.1 °F 69% 29.80 in 10.0 mi ESE 10.4 mph - N/A   Clear
5:53 AM 79.0 °F - 70.0 °F 74% 29.80 in 10.0 mi ESE 10.4 mph - N/A   Clear
6:53 AM 79.0 °F - 70.0 °F 74% 29.81 in 10.0 mi ESE 6.9 mph - N/A   Clear
7:15 AM 79.0 °F - 71.1 °F 77% 29.87 in 10.0 mi ESE 8.1 mph - N/A   Mostly Cloudy
7:25 AM 79.0 °F - 71.1 °F 77% 29.87 in 10.0 mi East 8.1 mph - N/A   Scattered Clouds
7:53 AM 79.0 °F - 71.1 °F 77% 29.82 in 10.0 mi ESE 8.1 mph - N/A   Clear
8:53 AM 80.1 °F 83.6 °F 71.1 °F 74% 29.84 in 10.0 mi East 9.2 mph - N/A   Mostly Cloudy
9:31 AM 82.0 °F 86.3 °F 71.1 °F 69% 29.89 in 10.0 mi ESE 10.4 mph - N/A   Mostly Cloudy
9:53 AM 82.4 °F 87.2 °F 71.6 °F 70% 29.90 in 10.0 mi SE 10.4 mph 19.6 mph N/A   Overcast
10:41 AM 84.9 °F 89.4 °F 70.0 °F 61% 29.89 in 10.0 mi ESE 9.2 mph - N/A   Partly Cloudy
10:53 AM 86.0 °F 90.7 °F 70.0 °F 59% 29.84 in 10.0 mi ESE 9.2 mph - N/A   Partly Cloudy
11:53 AM 88.0 °F 92.9 °F 70.0 °F 55% 29.84 in 10.0 mi ESE 9.2 mph 16.1 mph N/A   Scattered Clouds
12:53 PM 89.1 °F 93.7 °F 69.1 °F 52% 29.83 in 10.0 mi SSE 8.1 mph - N/A   Mostly Cloudy
1:53 PM 91.9 °F 96.9 °F 69.1 °F 47% 29.80 in 10.0 mi SE 9.2 mph - N/A   Scattered Clouds
2:53 PM 93.2 °F 97.7 °F 68.0 °F 44% 29.82 in 10.0 mi Variable 6.9 mph 17.3 mph N/A   Partly Cloudy
3:53 PM 96.1 °F 99.9 °F 66.9 °F 38% 29.74 in 10.0 mi SE 11.5 mph 17.3 mph N/A   Clear
4:53 PM 97.0 °F 100.4 °F 66.0 °F 36% 29.72 in 10.0 mi SE 9.2 mph - N/A   Clear
5:53 PM 98.1 °F 100.7 °F 64.0 °F 33% 29.71 in 10.0 mi SE 6.9 mph - N/A   Clear
6:53 PM 98.1 °F 100.7 °F 64.0 °F 33% 29.70 in 10.0 mi SE 8.1 mph - N/A   Clear
7:53 PM 96.1 °F 98.3 °F 64.0 °F 35% 29.71 in 10.0 mi ESE 8.1 mph - N/A   Clear
8:53 PM 93.0 °F 95.0 °F 64.9 °F 39% 29.77 in 10.0 mi ENE 8.1 mph - N/A   Clear
9:53 PM 91.4 °F 94.0 °F 66.2 °F 43% 29.83 in 10.0 mi East 9.2 mph - N/A   Clear
10:53 PM 91.0 °F 93.8 °F 66.0 °F 44% 29.79 in 10.0 mi East 9.2 mph - N/A   Partly Cloudy
11:53 PM 90.0 °F 92.4 °F 66.0 °F 45% 29.82 in 10.0 mi East 11.5 mph - N/A   Clear